Dinard-Pleurtuit-Saint-Malo Airport

Jump to: basic info | weather | frequencies | runways | comments

Related pages: nearby airports | nearby navaids | notams | map

Basic information (top)

Codes: DNR LFRD
Location: lon 48.587700, lat -2.079960, elev 219 ft / 67 m msl
Status: medium_airport
Scheduled airline service: yes
Links: Wikipedia Mobile

Weather (top)

Current conditions (rec'd 2014/09/18 13:00Z):

LFRD 181300Z AUTO 10007KT 9999 NSC 23/16 Q1006

Airport forecast (rec'd 2014/09/18 12:14Z):

TAF LFRD 181100Z 1812/1912 14008KT CAVOK 
      TEMPO 1812/1821 5000 SHRA BKN030CB 
      TEMPO 1815/1819 13010G35KT 3000 TSRAGR BKN030CB 
      BECMG 1900/1903 3000 BR 
      TEMPO 1903/1906 BKN005 
      BECMG 1906/1909 CAVOK 
      TEMPO 1906/1909 5000 SHRA SCT050TCU

Frequencies (top)

Verify before use: may be inaccurate or out of date.

ATIS: 124.575 MHz (DINARD ATIS)
TWR: 120.15 MHz (DINARD TWR)

Runways (top)

12/30: 4,708 x 148 ft (1,435 x 45 m) — paved — not lighted — threshold 30 displaced 476 ft (145 m)

17/35: 7,218 x 148 ft (2,200 x 45 m) — paved — lighted

Latest comments (top)

No comments yet for Dinard-Pleurtuit-Saint-Malo Airport

More... (top)

See also NOTAMs and nearby airports and navaids, or visit the Dinard-Pleurtuit-Saint-Malo Airport page at the main OurAirports website..